Weather History for Falls City, NE

Change the Weather History Date:

Tuesday, November 13, 2012

  Actual Average Record
Temperature  
Mean Temperature 38 °F -  
Max Temperature 55 °F 52 °F 81 °F (1999)
Min Temperature 21 °F 30 °F 2 °F (1986)
Degree Days  
Heating Degree Days 27    
Moisture  
Dew Point 26 °F    
Average Humidity 62    
Maximum Humidity 85    
Minimum Humidity 34    
Precipitation  
Precipitation 0.00 in - - ()
Sea Level Pressure  
Sea Level Pressure 30.37 in    
Wind  
Wind Speed 4 mph (South)    
Max Wind Speed 10 mph    
Max Gust Speed -    
Visibility 10 miles    
Events      
Averages and records for this station are not official NWS values.
T = Trace of Precipitation, MM = Missing Value Source: NWS Daily Summary

Daily Weather History Graph

Daily Weather History Graph

Search for Another Location

Airport:

Trip Planner

Search our weather history database for the weather conditions in past years. The results will help you decide how hot, cold, wet, or windy it might be!

Date:

Astronomy

Nov. 13, 2012 Rise Set
Actual Time 7:05 AM CST 5:07 PM CST
Civil Twilight 6:37 AM CST 5:35 PM CST
Nautical Twilight 6:04 AM CST 6:08 PM CST
Astronomical Twilight 5:32 AM CST 6:40 PM CST
Moon 6:45 AM CST (11/13) 5:00 PM CST (11/13)
Length of Visible Light 10h 58m
Length of Day
10h 01m
Waning Crescent, 0% of the Moon is Illuminated
Nov 13
Waning Crescent
Nov 13
New
Nov 20
First Quarter
Nov 28
Full
Dec 6
Last Quarter

Hourly Weather History & Observations

Time (CST) Temp. Windchill Dew Point Humidity Pressure Visibility Wind Dir Wind Speed Gust Speed Precip Events Conditions
12:53 AM 24.1 °F 18.2 °F 18.0 °F 77% 30.43 in 10.0 mi South 4.6 mph - N/A   Clear
1:53 AM 24.1 °F - 18.0 °F 77% 30.43 in 10.0 mi Calm Calm - N/A   Clear
2:53 AM 25.0 °F - 18.0 °F 75% 30.42 in 10.0 mi Calm Calm - N/A   Clear
3:53 AM 24.1 °F 18.2 °F 18.0 °F 77% 30.41 in 10.0 mi SE 4.6 mph - N/A   Clear
4:53 AM 23.0 °F - 17.1 °F 78% 30.42 in 10.0 mi Calm Calm - N/A   Clear
5:53 AM 23.0 °F 18.4 °F 18.0 °F 81% 30.43 in 10.0 mi SE 3.5 mph - N/A   Clear
6:53 AM 21.9 °F 17.2 °F 18.0 °F 85% 30.42 in 10.0 mi SE 3.5 mph - N/A   Clear
7:53 AM 25.0 °F 20.7 °F 19.0 °F 78% 30.42 in 10.0 mi ESE 3.5 mph - N/A   Clear
8:53 AM 30.9 °F 26.2 °F 24.1 °F 76% 30.43 in 10.0 mi South 4.6 mph - N/A   Clear
9:53 AM 37.0 °F 32.4 °F 28.0 °F 70% 30.42 in 10.0 mi South 5.8 mph - N/A   Clear
10:53 AM 44.1 °F 40.8 °F 28.9 °F 55% 30.41 in 10.0 mi South 5.8 mph - N/A   Clear
11:53 AM 48.9 °F - 28.9 °F 46% 30.38 in 10.0 mi South 5.8 mph - N/A   Clear
12:53 PM 55.0 °F - 30.0 °F 38% 30.34 in 10.0 mi SSE 8.1 mph - N/A   Clear
1:53 PM 55.9 °F - 28.0 °F 34% 30.32 in 10.0 mi South 8.1 mph - N/A   Clear
2:53 PM 55.9 °F - 28.0 °F 34% 30.30 in 10.0 mi South 10.4 mph - N/A   Clear
3:53 PM 54.0 °F - 28.0 °F 37% 30.31 in 10.0 mi South 6.9 mph - N/A   Clear
4:53 PM 51.1 °F - 30.0 °F 44% 30.31 in 10.0 mi South 5.8 mph - N/A   Clear
5:53 PM 45.0 °F 42.6 °F 33.1 °F 63% 30.32 in 10.0 mi SSE 4.6 mph - N/A   Clear
6:53 PM 46.9 °F - 33.1 °F 59% 30.33 in 10.0 mi South 5.8 mph - N/A   Clear
7:53 PM 44.1 °F 40.1 °F 32.0 °F 63% 30.34 in 10.0 mi South 6.9 mph - N/A   Clear
8:53 PM 44.1 °F 40.1 °F 32.0 °F 63% 30.35 in 10.0 mi South 6.9 mph - N/A   Clear
9:53 PM 43.0 °F 37.7 °F 30.9 °F 62% 30.36 in 10.0 mi SSW 9.2 mph - N/A   Clear
10:53 PM 42.1 °F 37.7 °F 30.0 °F 62% 30.35 in 10.0 mi SSW 6.9 mph - N/A   Mostly Cloudy
11:53 PM 43.0 °F 38.8 °F 30.0 °F 60% 30.35 in 10.0 mi SSW 6.9 mph - N/A   Overcast